TimeMST,TemperatureF,Dew PointF,Humidity,Sea Level PressureIn,VisibilityMPH,Wind Direction,Wind SpeedMPH,Gust SpeedMPH,PrecipitationIn,Events,Conditions,WindDirDegrees,DateUTC
12:15 AM,19.4,10.6,69,30.29,10.0,West,4.6,-,N/A,,Clear,270,2013-12-18 07:15:00
12:35 AM,15.8,7.9,71,30.28,10.0,West,5.8,-,N/A,,Clear,280,2013-12-18 07:35:00
12:55 AM,19.6,10.2,67,30.27,10.0,WNW,3.5,-,N/A,,Clear,290,2013-12-18 07:55:00
1:15 AM,19.4,9.5,65,30.26,10.0,West,3.5,-,N/A,,Clear,280,2013-12-18 08:15:00
1:35 AM,18.0,9.3,69,30.26,10.0,West,3.5,-,N/A,,Clear,280,2013-12-18 08:35:00
1:55 AM,18.5,9.3,67,30.26,10.0,Calm,Calm,-,N/A,,Clear,0,2013-12-18 08:55:00
2:15 AM,17.8,8.8,68,30.25,10.0,Calm,Calm,-,N/A,,Clear,0,2013-12-18 09:15:00
2:35 AM,19.4,9.5,65,30.25,10.0,Calm,Calm,-,N/A,,Clear,0,2013-12-18 09:35:00
2:55 AM,17.2,8.8,69,30.24,10.0,West,4.6,-,N/A,,Clear,260,2013-12-18 09:55:00
3:15 AM,17.2,9.0,70,30.23,10.0,West,4.6,-,N/A,,Clear,260,2013-12-18 10:15:00
3:35 AM,16.0,7.3,69,30.22,10.0,West,4.6,-,N/A,,Clear,260,2013-12-18 10:35:00
3:55 AM,17.6,7.9,66,30.21,10.0,Calm,Calm,-,N/A,,Clear,0,2013-12-18 10:55:00
4:15 AM,18.1,7.7,64,30.20,10.0,Calm,Calm,-,N/A,,Clear,0,2013-12-18 11:15:00
4:35 AM,17.4,7.7,66,30.19,10.0,West,5.8,-,N/A,,Clear,270,2013-12-18 11:35:00
4:55 AM,17.8,8.1,66,30.17,10.0,North,4.6,-,N/A,,Clear,350,2013-12-18 11:55:00
5:15 AM,17.1,8.4,69,30.17,10.0,NW,4.6,-,N/A,,Clear,310,2013-12-18 12:15:00
5:35 AM,15.4,6.6,68,30.16,10.0,NNW,3.5,-,N/A,,Clear,340,2013-12-18 12:35:00
5:55 AM,19.0,7.9,62,30.15,10.0,WSW,6.9,-,N/A,,Clear,250,2013-12-18 12:55:00
6:15 AM,16.0,7.2,68,30.15,10.0,ESE,4.6,-,N/A,,Clear,120,2013-12-18 13:15:00
6:35 AM,19.0,8.8,64,30.15,10.0,ENE,3.5,-,N/A,,Clear,60,2013-12-18 13:35:00
6:55 AM,16.9,7.9,68,30.14,10.0,Calm,Calm,-,N/A,,Clear,0,2013-12-18 13:55:00
7:15 AM,16.0,8.2,72,30.15,10.0,SSW,5.8,-,N/A,,Clear,210,2013-12-18 14:15:00
7:35 AM,18.5,9.1,67,30.15,10.0,Calm,Calm,-,N/A,,Clear,0,2013-12-18 14:35:00
7:55 AM,17.6,8.2,67,30.14,10.0,Calm,Calm,-,N/A,,Clear,0,2013-12-18 14:55:00
8:15 AM,18.9,8.6,64,30.14,10.0,Calm,Calm,-,N/A,,Clear,0,2013-12-18 15:15:00
8:35 AM,24.3,9.7,54,30.13,10.0,Calm,Calm,-,N/A,,Clear,0,2013-12-18 15:35:00
8:55 AM,23.2,10.4,58,30.13,10.0,Calm,Calm,-,N/A,,Clear,0,2013-12-18 15:55:00
9:15 AM,27.3,12.0,53,30.12,10.0,Calm,Calm,-,N/A,,Clear,0,2013-12-18 16:15:00
9:35 AM,30.6,11.8,46,30.12,10.0,South,3.5,-,N/A,,Clear,170,2013-12-18 16:35:00
9:55 AM,31.3,12.4,46,30.11,10.0,SW,6.9,-,N/A,,Clear,230,2013-12-18 16:55:00
10:15 AM,32.7,16.3,51,30.10,10.0,East,4.6,-,N/A,,Clear,100,2013-12-18 17:15:00
10:35 AM,34.2,15.1,46,30.10,10.0,SSW,5.8,-,N/A,,Clear,200,2013-12-18 17:35:00
10:55 AM,43.0,10.9,27,30.09,10.0,WSW,3.5,-,N/A,,Clear,240,2013-12-18 17:55:00
11:15 AM,46.0,10.6,24,30.07,10.0,WNW,11.5,20.7,N/A,,Clear,290,2013-12-18 18:15:00
11:35 AM,47.1,9.9,22,30.05,10.0,West,9.2,-,N/A,,Clear,260,2013-12-18 18:35:00
11:55 AM,46.2,10.2,23,30.04,10.0,SW,5.8,-,N/A,,Clear,230,2013-12-18 18:55:00
12:15 PM,47.8,11.7,23,30.03,10.0,NW,10.4,18.4,N/A,,Clear,310,2013-12-18 19:15:00
12:35 PM,48.4,10.2,21,30.01,10.0,West,12.7,24.2,N/A,,Clear,270,2013-12-18 19:35:00
12:55 PM,48.0,10.0,22,30.00,10.0,West,18.4,26.5,N/A,,Clear,270,2013-12-18 19:55:00
1:15 PM,48.0,12.2,24,29.99,10.0,West,11.5,18.4,N/A,,Clear,280,2013-12-18 20:15:00
1:35 PM,48.2,12.2,24,29.98,10.0,West,11.5,18.4,N/A,,Clear,270,2013-12-18 20:35:00
1:55 PM,49.3,9.1,20,29.97,10.0,WSW,6.9,-,N/A,,Clear,250,2013-12-18 20:55:00
2:15 PM,49.1,10.9,22,29.97,10.0,West,8.1,-,N/A,,Clear,280,2013-12-18 21:15:00
2:35 PM,47.8,10.0,22,29.97,10.0,WNW,4.6,18.4,N/A,,Clear,290,2013-12-18 21:35:00
2:55 PM,48.6,9.0,20,29.96,10.0,West,10.4,20.7,N/A,,Clear,260,2013-12-18 21:55:00
3:15 PM,47.1,13.3,26,29.96,10.0,West,9.2,-,N/A,,Clear,270,2013-12-18 22:15:00
3:35 PM,47.1,12.4,25,29.96,10.0,West,6.9,-,N/A,,Clear,260,2013-12-18 22:35:00
3:55 PM,45.7,13.3,27,29.96,10.0,West,12.7,18.4,N/A,,Clear,270,2013-12-18 22:55:00
4:15 PM,46.4,9.7,23,29.96,10.0,WSW,12.7,23.0,N/A,,Clear,240,2013-12-18 23:15:00
4:35 PM,45.0,10.2,24,29.96,10.0,West,9.2,21.9,N/A,,Clear,260,2013-12-18 23:35:00
4:55 PM,44.2,11.1,26,29.95,10.0,West,10.4,19.6,N/A,,Clear,260,2013-12-18 23:55:00
5:15 PM,45.3,7.5,21,29.95,10.0,SW,5.8,11.5,N/A,,Clear,230,2013-12-19 00:15:00
5:35 PM,43.5,9.5,25,29.95,10.0,WSW,12.7,16.1,N/A,,Clear,250,2013-12-19 00:35:00
5:55 PM,44.1,8.4,23,29.95,10.0,West,9.2,24.2,N/A,,Clear,260,2013-12-19 00:55:00
6:15 PM,41.0,11.8,30,29.95,10.0,WSW,9.2,-,N/A,,Clear,250,2013-12-19 01:15:00
6:35 PM,43.9,8.4,23,29.95,10.0,West,10.4,-,N/A,,Clear,260,2013-12-19 01:35:00
6:55 PM,43.2,6.4,22,29.96,10.0,SW,9.2,-,N/A,,Clear,220,2013-12-19 01:55:00
7:15 PM,43.0,7.5,23,29.95,10.0,West,4.6,-,N/A,,Clear,270,2013-12-19 02:15:00
7:35 PM,41.9,9.5,27,29.95,10.0,WSW,19.6,-,N/A,,Clear,250,2013-12-19 02:35:00
7:55 PM,41.7,10.4,28,29.95,10.0,WSW,16.1,24.2,N/A,,Clear,250,2013-12-19 02:55:00
8:15 PM,42.8,7.7,24,29.95,10.0,West,13.8,19.6,N/A,,Scattered Clouds,260,2013-12-19 03:15:00
8:35 PM,39.6,13.1,34,29.95,10.0,West,15.0,-,N/A,,Scattered Clouds,260,2013-12-19 03:35:00
8:55 PM,41.0,14.4,34,29.93,10.0,West,15.0,21.9,N/A,,Scattered Clouds,280,2013-12-19 03:55:00
9:15 PM,42.3,11.8,29,29.92,10.0,West,8.1,-,N/A,,Clear,280,2013-12-19 04:15:00
9:35 PM,39.7,12.4,33,29.91,10.0,NNW,10.4,-,N/A,,Clear,330,2013-12-19 04:35:00
9:55 PM,36.7,13.8,39,29.89,10.0,NNW,10.4,-,N/A,,Clear,330,2013-12-19 04:55:00
10:15 PM,37.8,12.7,36,29.88,10.0,NW,6.9,-,N/A,,Clear,310,2013-12-19 05:15:00
10:35 PM,37.9,14.5,38,29.88,10.0,West,9.2,-,N/A,,Scattered Clouds,260,2013-12-19 05:35:00
10:55 PM,33.6,16.0,48,29.88,10.0,SSW,6.9,-,N/A,,Clear,200,2013-12-19 05:55:00
11:15 PM,33.8,16.5,49,29.87,10.0,Calm,Calm,-,N/A,,Clear,0,2013-12-19 06:15:00
11:35 PM,29.7,16.5,58,29.86,10.0,Calm,Calm,-,N/A,,Clear,0,2013-12-19 06:35:00
11:55 PM,34.7,15.3,45,29.84,10.0,WSW,4.6,-,N/A,,Clear,240,2013-12-19 06:55:00